Terminal Aerodrome Forecast
Issued by NWS King Salmon, AK

Home | Current Version | Previous Version | Text Only | Print | Product List | Glossary On
Versions: 1 2 3 4 5 6 7 8 9 10 11 12 13 14 15 16 17 18 19 20 21 22 23 24 25 26
000
FTAK31 PANC 291139
TAFAKN
TAF
PAKN 291139Z 2912/3012 36012G20KT P6SM BKN130
     FM301100 36009KT P6SM SKC=

USA.gov is the U.S. government's official web portal to all federal, state and local government web resources and services.